Location: Campillo
(40.8621°N, 4.2488°W)
Time: 14:05:40
(UTC+00:00)

Meteor 1-25 Rocket - Visible Passes

Search period start: 19 September 2021 00:00
Search period end: 29 September 2021 00:00
Orbit: 837 x 891 km, 81.2° (Epoch: 18 September)

Date Brightness Start Highest point End Pass type
(mag) Time Alt. Az. Time Alt. Az. Time Alt. Az.
19 Sep 4.9 03:17:04 10° N 03:22:49 56° ENE 03:28:31 10° SSE visible
19 Sep 5.5 05:01:28 10° NW 05:05:30 20° W 05:09:31 10° SW visible
20 Sep 4.8 03:09:03 10° N 03:14:49 56° ENE 03:17:17 33° SE visible
20 Sep 5.5 04:53:26 10° NW 04:57:30 20° W 04:59:24 17° WSW visible
21 Sep 4.8 03:01:02 10° N 03:06:49 56° ENE 03:07:22 53° E visible
21 Sep 5.5 04:45:26 10° NW 04:49:29 20° W 04:49:33 20° W visible
22 Sep 5.0 02:53:03 10° N 02:58:01 51° NE 02:58:01 51° NE visible
22 Sep 5.7 04:37:24 10° NW 04:40:13 19° WNW 04:40:13 19° WNW visible
23 Sep 5.4 02:45:03 10° N 02:48:57 40° NNE 02:48:57 40° NNE visible
23 Sep 6.0 04:29:24 10° NW 04:31:10 16° WNW 04:31:10 16° WNW visible
24 Sep 5.8 02:37:02 10° N 02:40:05 30° NNE 02:40:05 30° NNE visible
24 Sep 6.2 04:21:23 10° NW 04:22:19 13° NW 04:22:19 13° NW visible
25 Sep 6.2 02:29:02 10° N 02:31:21 24° N 02:31:21 24° N visible
25 Sep 6.4 04:13:22 10° NW 04:13:35 11° NW 04:13:35 11° NW visible
26 Sep 6.4 02:21:01 10° N 02:22:44 20° N 02:22:44 20° N visible
27 Sep 6.6 02:13:01 10° N 02:14:12 16° N 02:14:12 16° N visible
28 Sep 6.8 02:05:01 10° N 02:05:43 14° N 02:05:43 14° N visible
